Regional Weather Roundup
Issued by NWS Grand Forks, ND

Home | Current Version | Previous Version | Graphics & Text | Print | Product List | Glossary Off
Versions: 1 2 3 4 5 6 7 8 9 10 11 12 13 14 15 16 17 18 19 20 21 22 23 24 25 26 27 28 29 30 31 32 33 34 35 36 37 38 39 40 41 42 43 44 45 46 47 48 49 50

698
ASUS43 KFGF 201531
RWRFGF
PRAIRIE TO PINES  WEATHER ROUNDUP
NATIONAL WEATHER SERVICE EASTERN NORTH DAKOTA/GRAND FORKS ND
900 AM CST FRI JAN 20 2017

 **SATELLITE DATA USED TO AUGMENT SKY COVER AT AUTOMATED STATIONS**
 *****  WEATHER ACROSS EASTERN NORTH DAKOTA  *****

CITY           SKY/WX    TMP DP  RH WIND       PRES   REMARKS
GRAND FORKS    CLOUDY    36  34  92 S13       29.50F FOG
GRAND FRKS AFB CLOUDY    34  34 100 SE10      29.50S FOG
DEVILS LAKE    MIX PCPN  34  34 100 SE8       29.46R FOG
FARGO          CLOUDY    36  36 100 SE10      29.50F FOG
WAHPETON ARPT  CLOUDY    32  32 100 SE9       29.52S WCI  24
$$

 ***** WEATHER ACROSS CENTRAL AND WESTERN NORTH DAKOTA  *****

CITY           SKY/WX    TMP DP  RH WIND       PRES   REMARKS
BISMARCK       FOG       24  22  91 W5        29.41F VSB 1/4 WCI  18
MINOT          FAIR      21  17  84 E5        29.38R WCI  15
JAMESTOWN      FOG       33  33 100 SE14      29.43F VSB 1   WCI  23
MINOT AFB      CLEAR     16  14  93 E5        29.38S WCI   9
GARRISON         N/A     13  12  96 CALM      29.38S
WILLISTON      FAIR      12  10  92 SW3       29.40S FOG
DICKINSON      FAIR      24  20  84 W10       29.35S WCI  14
HETTINGER      FAIR      26  22  84 NW12      29.37F WCI  16
$$

 *****  OTHER AIRPORT OBSERVATIONS IN OUR AREA  *****

CITY           SKY/WX    TMP DP  RH WIND       PRES   REMARKS
WALHALLA       NOT AVBL
GRAFTON AIRPOR FOG       34  34 100 S9        29.52F VSB 1/4
VALLEY CITY AR LGT RAIN  32  32 100 S13       29.48S VSB 3/4 WCI  22
CANDO          NOT AVBL
CAVALIER APRT  FOG       34  34 100 S8        29.50S VSB 3/4
GWINNER        CLOUDY    34  34 100 SE15      29.47F WCI  24
ROLLA            N/A    N/A N/A N/A MISG        N/A
 ***** THE ABOVE OBSERVATIONS ARE NON NWS ARE NOT QUALITY
       CONTROLLED AND MAY MIS-REPORT RAIN FOR SNOW...
$$

  *****  WEATHER ACROSS NORTHERN MINNESOTA  *****

CITY           SKY/WX    TMP DP  RH WIND       PRES   REMARKS
FLAG ISLAND    FOG       34  34 100 SE7       29.57S VSB 3/4
WARROAD        CLOUDY    36  30  80 SE7       29.57S FOG
ROSEAU         HAZE      36  30  80 SE9       29.56S VSB 1
HALLOCK        CLOUDY    36  34  93 SE10      29.52S FOG
THF RVR FALLS  CLOUDY    34  34 100 SE14      29.54F FOG     WCI  25
BAUDETTE       CLOUDY    34  33  96 SE8       29.58S FOG
WASKISH        CLOUDY    36  36 100 SE7       29.59S FOG
CROOKSTON      CLOUDY    36  34  93 SE14      29.54R FOG
STEPHEN NDAWN    N/A     36  36 100 SE9         N/A
GREENBUSH NDAW   N/A     34  34 100 SE8         N/A
$$
  *****  WEATHER ACROSS CENTRAL AND WEST MINNESOTA  *****

CITY           SKY/WX    TMP DP  RH WIND       PRES   REMARKS
FOSSTON        DRIZZLE   34  34 100 E5        29.54S
BEMIDJI        CLOUDY    33  33 100 E7        29.56F FOG
PARK RAPIDS    MIX PCPN  34  32  92 SE8       29.55S FOG
ELBOW LAKE     CLOUDY    33  33 100 SE7       29.53S FOG
WADENA         FOG       32  32 100 E8        29.55S VSB 3/4 WCI  25
DETROIT LAKES  CLOUDY    34  34 100 SE9       29.54S FOG
MOORHEAD       CLOUDY    34  34 100 SE7       29.53R FOG
FERGUS FALLS   FOG       34  34 100 SE8       29.57S VSB 1
MORRIS MN      FOG       34  34 100 SE10      29.52S VSB 1/2
STAPLES        CLOUDY    34  34 100 SE3       29.57S FOG
$$
  *****  WEATHER ELSEWHERE ACROSS MINNESOTA  *****

CITY           SKY/WX    TMP DP  RH WIND       PRES   REMARKS
DULUTH         DRIZZLE   35  34  96 E9        29.65S FOG
INTRNTL FALLS  CLOUDY    34  33  96 SE6       29.61S FOG
ELY            MOCLDY    23  23 100 CALM      29.66S FOG
CLOQUET        DRZL/FOG  34  34 100 E7        29.64S VSB 1
WHEATON        FOG       41  41 100 SE10      29.53F VSB 3/4
BRAINERD       CLOUDY    34  34 100 SE6       29.59S FOG
HIBBING        CLOUDY    31  31 100 SE6       29.64S FOG
ALEXANDRIA     CLOUDY    33  33 100 E10       29.54F FOG     WCI  25
SAINT CLOUD    FOG       34  34 100 SE7       29.59R VSB 1
MINNEAPOLIS    DRIZZLE   35  33  92 SE8       29.62S FOG
$$

  *****  WEATHER ACROSS SOUTH DAKOTA  *****

CITY           SKY/WX    TMP DP  RH WIND       PRES   REMARKS
SIOUX FALLS    CLOUDY    38  38 100 S10       29.51S FOG
BROOKINGS      FOG       36  36 100 SE10      29.48R VSB 3/4
WATERTOWN      CLOUDY    35  35 100 SE13      29.45F
HURON          CLOUDY    36  36 100 SE12      29.43F
SISSETON         N/A     34  34 100 S8        29.49F
ABERDEEN       CLOUDY    34  31  88 E10       29.44F FOG
MITCHELL       CLOUDY    37  37 100 S14       29.45F
PIERRE         FOG       13  10  88 CALM      29.40R VSB 1/4
MOBRIDGE       HAZE      24  19  81 NW7       29.36R VSB 1/4 WCI  16
RAPID CITY     FAIR      34  26  72 NW9       29.38S
$$

  *****  SOME WEATHER IN NEARBY STATES *****

CITY           SKY/WX    TMP DP  RH WIND       PRES   REMARKS
GLASGOW MT     MOCLDY    29  25  85 NW7       29.41S WCI  22
GREAT FALLS MT FAIR      32  22  66 SW10      29.43S WCI  24
CHEYENNE WY    CLOUDY    32  27  81 N6        29.46S
SCOTTSBLUFF NE FAIR      28  23  81 NW9       29.44R WCI  19
OMAHA NE       DRIZZLE   40  36  86 S5        29.58S FOG
DES MOINES IA  FOG       38  37  97 CALM      29.62R VSB 1/4
DAVENPORT IA   CLOUDY    37  37 100 S5        29.65R FOG
CHICAGO IL     CLOUDY    39  38  96 NE5       29.64R FOG
EAU CLAIRE WI  FOG       35  35 100 E5        29.65S VSB 1
LA CROSSE WI   FOG       36  34  92 CALM      29.65S VSB 1/4
$$

  *****  SOME NATIONAL WEATHER *****

CITY           SKY/WX    TMP DP  RH WIND       PRES   REMARKS
LA GUARDIA NY  CLOUDY    42  32  67 NE8       30.02R
RALEIGH NC     LGT RAIN  50  47  89 VRB3      29.92S FOG
ATLANTA GA     FAIR      66  60  81 SW13      29.88R
NEW ORLEANS LA PTSUNNY   69  68  96 S8        29.85R
OKLAHOMA CITY  FAIR      42  40  92 S10       29.50S
ALBUQUERQUE NM MOCLDY    33  31  92 VRB3      29.74R
SALT LAKE CITY MOCLDY    31  30  96 S3        29.61S FOG
LOS ANGELES CA HVY RAIN  52  51  97 SE9       29.75F FOG
BOISE ID       MOCLDY    36  27  69 SE15      29.42F
SEATTLE WA     MOCLDY    45  32  60 E10       29.17F
$$

*** WEATHER ACROSS MANITOBA...SASKATCHEWAN AND ONTARIO ***
                ***ONTARIO***

CITY           SKY/WX    TMP DP  RH WIND       PRES   REMARKS
GERALDTON      FOG       34  34 100 SW8       29.69R VSB 1/8
THUNDER BAY    FOG       30  30 100 VRB2      29.72S VSB 1/8
SIOUX LOOKOUT  FOG       34  34 100 S8        29.62S VSB 1/8
TORONTO        CLOUDY    37  34  87 E7        29.80S
BIG TROUT LK   FOG       21  19  93 E5        29.61R VSB 1/4 WCI  15
PICKLE LAKE    FOG       34  34 100 SW8       29.60R VSB 3/8
DRYDEN         FOG       34  34 100 S9        29.61S VSB 1/8
KENORA         FOG       34  34 100 S7        29.58S VSB 1/8
$$
                *** MANITOBA***

CITY           SKY/WX    TMP DP  RH WIND       PRES   REMARKS
BRANDON        MOCLDY    14  12  92 E3        29.42S FOG
DAUPHIN        FOG       21  19  93 SW3       29.38F VSB 1/8
ISLAND LAKE    FOG       21  19  93 SE3       29.54  VSB 1/2
PILOT MOUND      N/A     27  25  93 S7          N/A  WCI  19
THE PAS        PTCLDY    23  21  93 E3        29.40R
THOMPSON       LGT SNOW  28  27  93 E5        29.52S FOG     WCI  23
WINNIPEG       DRIZZLE   34  34 100 S12       29.50S FOG
LYNN LAKE      CLOUDY    28  28 100 E14       29.45S FOG     WCI  17
CHURCHILL      FLURRIES  16  14  93 E17G24    29.73R WCI   0
GILLAM         LGT SNOW  25  23  93 E6        29.62R FOG     WCI  18
$$
                ***SASKATCHEWAN***

CITY           SKY/WX    TMP DP  RH WIND       PRES   REMARKS
ESTEVAN        MOCLDY    10   9  92 CALM      29.37S
KINDERSLEY     MOCLDY    25  21  86 W5        29.33S WCI  19
LLOYDMINSTER   MOCLDY    23  21  93 W9        29.33R WCI  13
PRINCE ALBERT  MOCLDY    23  23 100 NE3       29.31R
REGINA         PTCLDY    14  14 100 E9        29.37R WCI   2
YORKTON        CLEAR     21  19  93 CALM      29.35F
N. BATTLEFORD  CLEAR     27  27 100 NW5       29.35R WCI  21
LA RONGE       CLOUDY    27  25  93 NE6       29.32S WCI  20
SASKATOON      MOCLDY    28  27  93 W6        29.33S WCI  22
SWIFT CURRENT  PTCLDY    34  25  69 W14       29.34S WCI  24
$$
NOTE: THESE ARE AUTOMATED STATIONS WITH LIMITED QUALITY CONTROL
      "FAIR" INDICATES FEW OR NO CLOUDS BELOW 12,000 FEET WITH NO
      SIGNIFICANT WEATHER AND/OR OBSTRUCTIONS TO VISIBILITY.
      SKY/WX - SKY CONDITION AND SIGNIFICANT WEATHER.
      TMP - AIR TEMPERATURE.    DP   - DEWPOINT TEMPERATURE.
      RH  - RELATIVE HUMIDITY.  PRES - PRESSURE.
      HX  - HEAT INDEX.         WCI  - WIND CHILL INDEX.
$




USA.gov is the U.S. government's official web portal to all federal, state and local government web resources and services.